BEIDOU-3 M11 (C25)

Last updated on Mon Oct 20 2025 00:03:25 GMT+0000 (Coordinated Universal Time)

1 43603U 18067B 25291.94894284 -.00000002 00000+0 00000+0 0 9996 2 43603 54.1818 189.1868 0005202 27.5351 332.5516 1.86227207 48651
UTC large
Height (km)
Speed (km/s)
/
Latitude / Longitude
Inclination (degrees)
Orbital Period (minutes)
Azimuth
Elevation
Range (km)
Doppler Factor

Next 0 passes for location: London (51.5072 / 0.1276)

Sorry there are no passes over London.